• Join FlightAware (Why Join?)
  • Login
  • US Flag GB Flag 
13:55 EDT


 

Airport Tracker/Info


-or-


 

Live Flight TrackerFlight Track Log ✈ SKW7367 ✈ 26-Nov-2013 ✈ KDTW - KAPN

Flight Track Log - Related Links

Times and Time Zones

All times are in EST time to prevent confusion due to time zone crossing. See the SKW7367 flight status page for this flight to view local times or setup timezone preferences in your user account.

Time Position Orientation Groundspeed Altitude Reporting Facility
EST Latitude Longitude Course Direction KTS MPH feet Rate Location/Type
16:08 42.2106 -83.3650 223° Southwest 148 170 1,300  Level Cleveland Center
16:09 42.1781 -83.4053 223° Southwest 201 231 3,300 2,100 Climbing Cleveland Center
16:10 42.1592 -83.4281 222° Southwest 231 266 4,200 2,640 Climbing Cleveland Center
16:10 42.1269 -83.4658 221° Southwest 256 295 6,000 2,880 Climbing Cleveland Center
16:11 42.1189 -83.5011 253° West 252 290 7,200 2,940 Climbing Cleveland Center
16:11 42.1414 -83.5494 302° West 256 295 9,000 2,160 Climbing Cleveland Center
16:12 42.1642 -83.5797 315° West 262 302 9,500 840 Climbing Cleveland Center
16:12 42.1964 -83.6222 316° Northwest 280 322 9,900 480 Climbing Cleveland Center
16:13 42.2303 -83.6333 346° North 288 331 10,000 240 Climbing Cleveland Center
16:13 42.2783 -83.6200 12° North 335 386 10,200 960 Climbing Cleveland Center
16:14 42.3214 -83.6017 17° North 334 384 11,000 1,620 Climbing Cleveland Center
16:14 42.3778 -83.5808 15° North 361 415 11,900 1,020 Climbing Cleveland Center
16:15 42.4158 -83.5639 18° North 361 415 12,100 660 Climbing Cleveland Center
16:16 42.5222 -83.5222 16° North 375 432 13,000 420 Climbing Cleveland Center
16:17 42.6217 -83.4836 16° North 372 428 13,000 60 Level Cleveland Center
16:18 42.7228 -83.4433 16° North 376 433 13,200 600 Climbing Cleveland Center
16:20 42.9683 -83.4194 North 420 483 15,000 540 Climbing Cleveland Center
16:21 43.0878 -83.4267 357° North 428 493 15,000  Level Cleveland Center
16:22 43.2083 -83.4356 357° North 432 497 15,000  Level Cleveland Center
16:23 43.3264 -83.4417 358° North 428 493 15,000  Level Cleveland Center
16:25 43.5844 -83.4581 357° North 423 487 15,000  Level Cleveland Center
16:26 43.7014 -83.4639 358° North 422 486 15,000  Level Cleveland Center
16:27 43.8181 -83.4728 357° North 421 484 15,000  Level Cleveland Center
16:28 43.9542 -83.4811 357° North 425 489 15,000 -180 Level Minneapolis Center
16:29 44.0756 -83.4892 357° North 408 470 14,700 -780 Descending Minneapolis Center
16:30 44.1764 -83.4961 357° North 367 422 13,400 -1,680 Descending Minneapolis Center
16:31 44.2728 -83.5097 354° North 329 379 11,300 -2,040 Descending Minneapolis Center
16:32 44.3547 -83.5311 349° North 305 351 9,300 -1,740 Descending Minneapolis Center
16:33 44.4322 -83.5517 349° North 267 307 7,800 -1,260 Descending Minneapolis Center
16:34 44.5075 -83.5608 355° North 270 311 6,800 -1,020 Descending Minneapolis Center
16:36 44.5878 -83.5594 North 272 313 5,700 -900 Descending Minneapolis Center
16:37 44.6594 -83.5600 360° North 263 303 5,000 -360 Descending Minneapolis Center
16:38 44.7381 -83.5611 359° North 263 303 5,000  Level Minneapolis Center
16:39 44.8147 -83.5611 360° North 260 299 5,000 420 Level Minneapolis Center
16:40 44.8892 -83.5542 North 276 318 5,900 480 Climbing Minneapolis Center
16:41 44.8906 -83.4600 89° East 269 310 6,000  Climbing Minneapolis Center
16:42 44.8206 -83.4736 188° South 261 300 5,900 240 Descending Minneapolis Center
16:43 44.7431 -83.4781 182° South 261 300 6,600 480 Climbing Minneapolis Center
16:44 44.6700 -83.4747 178° South 263 303 7,000 180 Climbing Minneapolis Center
16:45 44.5931 -83.4714 178° South 261 300 7,000  Level Minneapolis Center
16:46 44.5283 -83.4686 178° South 241 277 7,000  Level Minneapolis Center
16:47 44.4578 -83.4667 179° South 237 273 7,000  Level Minneapolis Center
16:48 44.3917 -83.4631 178° South 239 275 7,000  Level Minneapolis Center
16:49 44.3197 -83.4606 179° South 241 277 7,000  Level Minneapolis Center
16:50 44.2500 -83.4583 179° South 235 270 7,000  Level Minneapolis Center
16:51 44.2231 -83.5164 237° Southwest 235 270 7,000  Level Minneapolis Center
16:52 44.2897 -83.5347 349° North 238 274 7,000  Level Minneapolis Center
16:53 44.3522 -83.5378 358° North 230 265 7,000  Level Minneapolis Center
16:54 44.4269 -83.5414 358° North 247 284 7,000  Level Minneapolis Center
16:55 44.4958 -83.5447 358° North 251 289 7,000  Level Minneapolis Center
16:56 44.5700 -83.5486 358° North 249 287 7,000  Level Minneapolis Center
16:57 44.6361 -83.5572 355° North 243 280 7,000  Level Minneapolis Center
16:58 44.7036 -83.5664 354° North 247 284 7,000  Level Minneapolis Center
16:59 44.7697 -83.5567 North 242 278 7,000  Level Minneapolis Center
17:00 44.8408 -83.5597 358° North 239 275 7,000  Level Minneapolis Center
17:01 44.9022 -83.5286 20° North 264 304 7,000  Level Minneapolis Center
17:02 44.8606 -83.4717 136° Southeast 239 275 7,000  Level Minneapolis Center
17:03 44.7897 -83.4783 184° South 236 272 7,000  Level Minneapolis Center
17:04 44.7258 -83.4758 178° South 233 268 7,000  Level Minneapolis Center
17:06 44.6564 -83.4733 179° South 234 269 7,000  Level Minneapolis Center
17:07 44.5922 -83.4708 178° South 234 269 7,000  Level Minneapolis Center
17:08 44.5211 -83.4669 178° South 237 273 7,000  Level Minneapolis Center
17:09 44.4539 -83.4653 179° South 242 278 7,000  Level Minneapolis Center
17:10 44.3828 -83.4619 178° South 240 276 7,000  Level Minneapolis Center
17:11 44.3194 -83.4589 178° South 233 268 7,000  Level Minneapolis Center
17:12 44.2503 -83.4572 179° South 233 268 7,000  Level Minneapolis Center
17:13 44.1875 -83.4622 183° South 237 273 7,000  Level Minneapolis Center
17:14 44.2039 -83.5328 288° West 229 264 7,000  Level Minneapolis Center
17:15 44.2719 -83.5347 359° North 246 283 7,000  Level Minneapolis Center
17:16 44.3472 -83.5378 358° North 252 290 7,000  Level Minneapolis Center
17:17 44.4119 -83.5408 358° North 240 276 7,000  Level Minneapolis Center
17:18 44.4811 -83.5442 358° North 234 269 7,000  Level Minneapolis Center
17:19 44.5447 -83.5472 358° North 233 268 7,000  Level Minneapolis Center
17:20 44.6156 -83.5497 359° North 237 273 7,000  Level Minneapolis Center
17:21 44.6842 -83.5533 358° North 246 283 7,000  Level Minneapolis Center
17:22 44.7544 -83.5567 358° North 252 290 7,000  Level Minneapolis Center
17:23 44.8292 -83.5594 358° North 252 290 7,000  Level Minneapolis Center
17:24 44.8942 -83.5456 North 255 293 7,000  Level Minneapolis Center
17:25 44.8689 -83.4750 117° Southeast 236 272 7,000  Level Minneapolis Center
17:26 44.8031 -83.4719 178° South 240 276 7,000  Level Minneapolis Center
17:27 44.7331 -83.4736 181° South 237 273 7,000  Level Minneapolis Center
17:28 44.6750 -83.5028 200° South 225 259 7,000  Level Minneapolis Center
17:29 44.6081 -83.5361 200° South 235 270 7,000  Level Minneapolis Center
17:30 44.5464 -83.5678 200° South 237 273 7,100 1,380 Climbing Minneapolis Center
17:31 44.4711 -83.6064 200° South 268 308 9,900 1,380 Climbing Minneapolis Center
17:32 44.3972 -83.6433 200° South 283 326 10,000  Climbing Minneapolis Center
17:33 44.3239 -83.6814 200° South 264 304 10,000  Level Minneapolis Center
17:34 44.2567 -83.7156 200° South 259 298 10,000  Level Minneapolis Center
17:35 44.1839 -83.7517 200° South 261 300 10,000  Level Minneapolis Center
17:36 44.1172 -83.7861 200° South 259 298 10,000 -480 Level Minneapolis Center
17:37 44.0456 -83.8172 197° South 253 291 9,100 -960 Descending Minneapolis Center
17:38 43.9733 -83.8325 189° South 264 304 8,100 -900 Descending Minneapolis Center
17:40 43.8983 -83.8522 191° South 263 303 7,300 -780 Descending Minneapolis Center
17:41 43.8245 -83.9170 202° Southwest  Level FlightAware Approximate
17:48 43.5329 -84.0796 190° South  Level Estimated
17:49 43.5329 -84.0796 190° South  Level Estimated
17:50 43.5329 -84.0796 190° South  Level Estimated
17:51 43.5329 -84.0796 190° South  Level Estimated
17:52 43.5329 -84.0796 190° South  Level Estimated
17:53 43.5329 -84.0796 190° South  Level Estimated
17:54 43.5329 -84.0796 190° South  Level Estimated
17:55 43.5329 -84.0796 190° South  Level Estimated